QPF
0.04 0.05 0.03 0.03 0.03 0.01 0.01 0.01 0.01 0.02 0.03 0.03 0.03 0.03 0.02 0.02 0.02 0.02 0.02 0.02 0.03 0.03 0.02 0.04 0.04 0.04 0.03 0.03 0.04 0.04 0.05 0.07 0.07 0.07 0.06 0.04 0.04 0.04 0.05 0.06 0.08 0.07 0.06
0.05 0.06 0.04 0.04 0.05 0.03 0.02 0.01 0.01 0.02 0.02 0.02 0.02 0.03 0.02 0.02 0.02 0.02 0.02 0.02 0.02 0.02 0.02 0.03 0.03 0.03 0.03 0.02 0.03 0.03 0.03 0.04 0.05 0.05 0.05 0.04 0.03 0.04 0.03 0.04 0.05 0.06 0.05
0.07 0.10 0.08 0.04 0.03 0.02 0.02 0.01 0.01 0.01 0.02 0.03 0.05 0.05 0.04 0.02 0.02 0.03 0.03 0.03 0.02 0.02 0.03 0.06 0.07 0.06 0.05 0.04 0.04 0.04 0.04 0.03 0.04 0.03 0.04 0.03 0.02 0.03 0.03 0.02 0.03 0.05 0.05
0.06 0.08 0.06 0.03 0.02 0.01 0.01 0.01 0.01 0.01 0.02 0.03 0.04 0.04 0.04 0.04 0.03 0.04 0.04 0.04 0.04 0.04 0.05 0.07 0.09 0.08 0.07 0.05 0.03 0.02 0.03 0.04 0.04 0.03 0.03 0.03 0.02 0.03 0.03 0.02 0.03 0.04 0.04
0.05 0.05 0.03 0.02 0.01 0.01 0.01 0.01 0.01 0.02 0.03 0.04 0.04 0.04 0.04 0.04 0.04 0.04 0.04 0.04 0.04 0.04 0.05 0.07 0.07 0.07 0.06 0.04 0.03 0.03 0.03 0.02 0.03 0.04 0.05 0.04 0.04 0.04 0.03 0.04 0.03 0.04 0.05
0.02 0.02 0.02 0.01 0.01 0.01 0.02 0.02 0.02 0.03 0.03 0.04 0.03 0.03 0.03 0.04 0.03 0.03 0.03 0.04 0.05 0.05 0.05 0.06 0.05 0.05 0.05 0.05 0.04 0.04 0.04 0.04 0.03 0.04 0.04 0.05 0.05 0.04 0.04 0.02 0.02 0.03 0.04
0.01 0.01 0.01 0.01 0.01 0.01 0.02 0.02 0.02 0.01 0.02 0.02 0.02 0.02 0.03 0.03 0.02 0.02 0.02 0.03 0.04 0.04 0.04 0.03 0.02 0.03 0.05 0.06 0.07 0.08 0.07 0.06 0.05 0.04 0.03 0.03 0.04 0.04 0.04 0.03 0.02 0.02 0.03
0.00 0.00 0.00 0.01 0.01 0.01 0.02 0.03 0.02 0.01 0.01 0.02 0.02 0.02 0.02 0.02 0.03 0.02 0.02 0.03 0.03 0.03 0.03 0.03 0.02 0.03 0.03 0.04 0.05 0.06 0.07 0.05 0.04 0.03 0.02 0.02 0.02 0.02 0.04 0.03 0.02 0.03 0.03
0.01 0.00 0.01 0.01 0.01 0.01 0.01 0.01 0.02 0.02 0.02 0.02 0.02 0.03 0.03 0.03 0.03 0.02 0.03 0.03 0.03 0.03 0.04 0.03 0.03 0.03 0.03 0.03 0.04 0.04 0.04 0.04 0.04 0.03 0.03 0.02 0.02 0.02 0.02 0.03 0.03 0.02 0.02
0.01 0.01 0.01 0.01 0.01 0.01 0.02 0.03 0.05 0.05 0.04 0.03 0.03 0.04 0.05 0.04 0.04 0.04 0.05 0.04 0.03 0.03 0.03 0.03 0.03 0.04 0.04 0.04 0.05 0.04 0.03 0.03 0.03 0.04 0.04 0.03 0.02 0.02 0.02 0.02 0.03 0.03 0.02
0.01 0.02 0.03 0.02 0.03 0.03 0.03 0.04 0.06 0.06 0.05 0.05 0.04 0.04 0.05 0.05 0.06 0.07 0.07 0.06 0.06 0.05 0.04 0.04 0.04 0.05 0.05 0.05 0.05 0.03 0.03 0.03 0.03 0.02 0.02 0.02 0.02 0.02 0.02 0.02 0.02 0.03 0.03
0.01 0.01 0.04 0.05 0.04 0.04 0.04 0.04 0.05 0.06 0.05 0.06 0.05 0.05 0.05 0.06 0.07 0.07 0.07 0.07 0.07 0.05 0.04 0.05 0.05 0.04 0.04 0.04 0.04 0.04 0.03 0.04 0.03 0.02 0.02 0.02 0.02 0.02 0.02 0.02 0.02 0.03 0.02
0.02 0.02 0.03 0.05 0.04 0.04 0.04 0.04 0.04 0.05 0.06 0.09 0.06 0.06 0.06 0.05 0.07 0.07 0.08 0.08 0.07 0.06 0.06 0.06 0.05 0.05 0.04 0.04 0.04 0.04 0.04 0.05 0.05 0.04 0.04 0.04 0.04 0.04 0.03 0.03 0.02 0.02 0.03
0.03 0.03 0.03 0.05 0.05 0.04 0.04 0.04 0.04 0.05 0.06 0.05 0.05 0.06 0.06 0.05 0.05 0.06 0.06 0.07 0.07 0.06 0.05 0.06 0.06 0.05 0.04 0.04 0.04 0.04 0.04 0.04 0.04 0.04 0.05 0.05 0.05 0.04 0.04 0.03 0.03 0.02 0.03
0.02 0.02 0.03 0.03 0.05 0.04 0.04 0.04 0.05 0.05 0.05 0.05 0.05 0.05 0.05 0.04 0.04 0.05 0.05 0.05 0.04 0.05 0.05 0.06 0.06 0.05 0.04 0.04 0.04 0.05 0.04 0.04 0.04 0.04 0.04 0.03 0.04 0.04 0.05 0.04 0.04 0.04 0.03
0.03 0.03 0.03 0.05 0.05 0.02 0.02 0.03 0.07 0.06 0.04 0.03 0.04 0.04 0.04 0.04 0.04 0.04 0.04 0.04 0.03 0.03 0.03 0.04 0.05 0.04 0.04 0.04 0.04 0.04 0.04 0.05 0.05 0.06 0.05 0.05 0.04 0.04 0.04 0.05 0.05 0.04 0.04
0.03 0.02 0.04 0.06 0.03 0.02 0.02 0.03 0.05 0.05 0.05 0.05 0.05 0.05 0.04 0.04 0.04 0.04 0.04 0.04 0.04 0.04 0.03 0.04 0.04 0.03 0.03 0.03 0.04 0.03 0.02 0.02 0.03 0.04 0.04 0.05 0.06 0.06 0.06 0.06 0.07 0.07 0.06
0.02 0.02 0.03 0.03 0.03 0.02 0.02 0.03 0.04 0.05 0.05 0.05 0.05 0.04 0.03 0.03 0.03 0.02 0.03 0.03 0.03 0.03 0.03 0.03 0.03 0.03 0.02 0.02 0.04 0.03 0.01 0.01 0.01 0.02 0.02 0.02 0.03 0.04 0.05 0.05 0.05 0.05 0.06
0.02 0.02 0.02 0.02 0.02 0.03 0.03 0.03 0.04 0.05 0.05 0.03 0.03 0.02 0.02 0.02 0.03 0.02 0.03 0.03 0.02 0.02 0.02 0.01 0.01 0.02 0.01 0.02 0.03 0.02 0.01 0.01 0.01 0.02 0.02 0.03 0.03 0.05 0.07 0.09 0.09 0.07 0.06
0.02 0.02 0.02 0.02 0.02 0.02 0.03 0.03 0.04 0.05 0.05 0.03 0.03 0.02 0.02 0.01 0.01 0.01 0.01 0.01 0.01 0.01 0.01 0.01 0.01 0.02 0.01 0.02 0.02 0.02 0.00 0.01 0.01 0.01 0.02 0.02 0.02 0.02 0.03 0.04 0.04 0.04 0.04
0.02 0.02 0.02 0.02 0.02 0.02 0.03 0.04 0.05 0.04 0.03 0.02 0.02 0.01 0.01 0.01 0.01 0.00 0.00 0.01 0.01 0.01 0.01 0.01 0.01 0.01 0.01 0.01 0.02 0.02 0.01 0.01 0.01 0.01 0.01 0.01 0.01 0.01 0.01 0.01 0.01 0.01 0.02
0.03 0.03 0.03 0.02 0.02 0.02 0.03 0.03 0.04 0.03 0.02 0.01 0.01 0.01 0.01 0.00 0.00 0.00 0.00 0.01 0.01 0.01 0.01 0.02 0.01 0.01 0.01 0.01 0.01 0.02 0.02 0.02 0.02 0.02 0.02 0.01 0.01 0.00 0.00 0.01 0.01 0.02 0.03
0.05 0.04 0.05 0.04 0.02 0.01 0.01 0.02 0.02 0.03 0.03 0.02 0.01 0.01 0.00 0.00 0.00 0.00 0.00 0.01 0.01 0.02 0.01 0.02 0.02 0.02 0.02 0.02 0.03 0.03 0.03 0.02 0.02 0.01 0.02 0.02 0.01 0.00 0.00 0.01 0.01 0.02 0.02
0.05 0.04 0.05 0.04 0.02 0.01 0.01 0.02 0.01 0.01 0.02 0.02 0.01 0.01 0.01 0.00 0.00 0.00 0.01 0.01 0.02 0.02 0.01 0.01 0.02 0.02 0.02 0.03 0.03 0.02 0.01 0.01 0.01 0.01 0.01 0.01 0.01 0.01 0.01 0.01 0.01 0.01 0.02
0.04 0.04 0.03 0.02 0.02 0.01 0.01 0.01 0.01 0.01 0.01 0.01 0.01 0.00 0.00 0.00 0.00 0.01 0.00 0.01 0.01 0.02 0.01 0.01 0.01 0.01 0.01 0.03 0.03 0.02 0.01 0.01 0.01 0.01 0.01 0.01 0.01 0.01 0.01 0.01 0.01 0.02 0.02
0.04 0.04 0.02 0.02 0.02 0.01 0.01 0.01 0.01 0.01 0.01 0.01 0.01 0.01 0.01 0.01 0.01 0.00 0.00 0.00 0.01 0.01 0.01 0.01 0.01 0.01 0.01 0.02 0.02 0.02 0.01 0.01 0.01 0.02 0.02 0.02 0.02 0.02 0.02 0.02 0.02 0.02 0.02
MSLP
1009.62 1009.95 1010.28 1010.59 1010.89 1011.19 1011.51 1011.86 1012.26 1012.69 1013.14 1013.59 1014.00 1014.36 1014.64 1014.83 1014.94 1015.00 1015.03 1015.07 1015.15 1015.29 1015.50 1015.79 1016.14 1016.53 1016.94 1017.34 1017.72 1018.07 1018.37 1018.63 1018.85 1019.04 1019.18 1019.28 1019.33 1019.33 1019.28 1019.20 1019.10 1019.01 1018.95
1009.46 1009.90 1010.31 1010.67 1010.98 1011.26 1011.55 1011.87 1012.26 1012.71 1013.21 1013.74 1014.23 1014.65 1014.96 1015.15 1015.21 1015.17 1015.09 1015.02 1014.99 1015.06 1015.23 1015.51 1015.88 1016.29 1016.72 1017.13 1017.50 1017.83 1018.11 1018.35 1018.57 1018.77 1018.95 1019.12 1019.24 1019.32 1019.34 1019.30 1019.22 1019.11 1019.00
1009.28 1009.83 1010.33 1010.76 1011.10 1011.38 1011.64 1011.94 1012.31 1012.78 1013.32 1013.90 1014.46 1014.95 1015.30 1015.49 1015.53 1015.43 1015.27 1015.10 1014.98 1014.96 1015.07 1015.32 1015.66 1016.06 1016.48 1016.88 1017.23 1017.53 1017.79 1018.02 1018.24 1018.47 1018.70 1018.94 1019.15 1019.31 1019.40 1019.42 1019.35 1019.24 1019.10
1009.10 1009.74 1010.34 1010.85 1011.23 1011.53 1011.78 1012.06 1012.41 1012.87 1013.42 1014.04 1014.65 1015.18 1015.58 1015.80 1015.83 1015.71 1015.50 1015.25 1015.06 1014.96 1015.00 1015.18 1015.47 1015.83 1016.22 1016.58 1016.90 1017.17 1017.40 1017.63 1017.86 1018.12 1018.41 1018.71 1019.01 1019.25 1019.42 1019.49 1019.46 1019.35 1019.19
1008.95 1009.67 1010.36 1010.94 1011.38 1011.70 1011.95 1012.21 1012.53 1012.95 1013.49 1014.10 1014.73 1015.30 1015.74 1015.99 1016.05 1015.93 1015.70 1015.42 1015.17 1015.01 1014.97 1015.08 1015.30 1015.59 1015.91 1016.23 1016.50 1016.74 1016.96 1017.18 1017.42 1017.71 1018.05 1018.42 1018.79 1019.11 1019.35 1019.47 1019.48 1019.39 1019.22
1008.83 1009.62 1010.39 1011.05 1011.55 1011.90 1012.15 1012.37 1012.65 1013.02 1013.50 1014.08 1014.69 1015.26 1015.72 1016.01 1016.10 1016.02 1015.80 1015.52 1015.24 1015.04 1014.94 1014.97 1015.11 1015.33 1015.58 1015.82 1016.05 1016.26 1016.46 1016.67 1016.93 1017.25 1017.62 1018.04 1018.46 1018.84 1019.14 1019.32 1019.37 1019.31 1019.17
1008.77 1009.61 1010.44 1011.17 1011.73 1012.11 1012.36 1012.55 1012.76 1013.06 1013.46 1013.96 1014.52 1015.07 1015.53 1015.84 1015.98 1015.94 1015.76 1015.51 1015.23 1015.01 1014.87 1014.83 1014.89 1015.03 1015.20 1015.38 1015.56 1015.73 1015.91 1016.12 1016.39 1016.72 1017.12 1017.56 1018.02 1018.44 1018.78 1019.00 1019.11 1019.10 1018.99
1008.75 1009.61 1010.50 1011.28 1011.89 1012.31 1012.56 1012.72 1012.86 1013.07 1013.37 1013.77 1014.24 1014.73 1015.17 1015.49 1015.67 1015.68 1015.57 1015.36 1015.11 1014.89 1014.72 1014.64 1014.63 1014.70 1014.80 1014.92 1015.05 1015.19 1015.35 1015.56 1015.82 1016.15 1016.55 1017.00 1017.46 1017.90 1018.27 1018.54 1018.70 1018.74 1018.71
1008.74 1009.63 1010.54 1011.37 1012.02 1012.46 1012.72 1012.85 1012.94 1013.05 1013.24 1013.53 1013.90 1014.30 1014.70 1015.01 1015.21 1015.28 1015.22 1015.07 1014.88 1014.67 1014.50 1014.39 1014.34 1014.34 1014.39 1014.46 1014.55 1014.66 1014.80 1014.99 1015.24 1015.56 1015.94 1016.37 1016.83 1017.26 1017.65 1017.95 1018.16 1018.29 1018.34
1008.74 1009.62 1010.55 1011.40 1012.07 1012.54 1012.80 1012.92 1012.96 1013.00 1013.09 1013.27 1013.53 1013.84 1014.17 1014.46 1014.67 1014.77 1014.77 1014.68 1014.54 1014.37 1014.21 1014.09 1014.01 1013.97 1013.98 1014.01 1014.07 1014.15 1014.28 1014.45 1014.68 1014.97 1015.32 1015.72 1016.15 1016.57 1016.96 1017.29 1017.56 1017.76 1017.91
1008.72 1009.59 1010.49 1011.33 1012.02 1012.50 1012.78 1012.91 1012.92 1012.92 1012.94 1013.02 1013.18 1013.41 1013.66 1013.91 1014.10 1014.22 1014.26 1014.22 1014.12 1013.99 1013.86 1013.74 1013.65 1013.59 1013.56 1013.57 1013.61 1013.68 1013.78 1013.93 1014.14 1014.40 1014.71 1015.07 1015.46 1015.86 1016.24 1016.59 1016.91 1017.19 1017.44
1008.68 1009.50 1010.37 1011.18 1011.85 1012.34 1012.65 1012.80 1012.83 1012.80 1012.79 1012.81 1012.90 1013.04 1013.21 1013.40 1013.56 1013.67 1013.72 1013.71 1013.64 1013.55 1013.43 1013.32 1013.23 1013.17 1013.13 1013.13 1013.15 1013.21 1013.30 1013.44 1013.62 1013.85 1014.13 1014.44 1014.79 1015.15 1015.52 1015.89 1016.25 1016.59 1016.93
1008.62 1009.37 1010.17 1010.92 1011.57 1012.07 1012.41 1012.59 1012.66 1012.66 1012.65 1012.64 1012.67 1012.75 1012.85 1012.97 1013.07 1013.15 1013.19 1013.18 1013.12 1013.04 1012.95 1012.85 1012.76 1012.70 1012.66 1012.65 1012.68 1012.73 1012.82 1012.95 1013.11 1013.31 1013.55 1013.83 1014.14 1014.47 1014.82 1015.19 1015.58 1015.97 1016.38
1008.55 1009.21 1009.91 1010.59 1011.20 1011.70 1012.07 1012.31 1012.44 1012.50 1012.51 1012.51 1012.51 1012.53 1012.57 1012.61 1012.65 1012.67 1012.66 1012.62 1012.56 1012.48 1012.38 1012.29 1012.21 1012.15 1012.12 1012.12 1012.15 1012.21 1012.30 1012.42 1012.58 1012.76 1012.98 1013.22 1013.50 1013.80 1014.14 1014.50 1014.90 1015.32 1015.76
1008.45 1009.01 1009.61 1010.21 1010.77 1011.26 1011.66 1011.96 1012.17 1012.29 1012.36 1012.38 1012.38 1012.36 1012.33 1012.30 1012.26 1012.20 1012.13 1012.05 1011.95 1011.85 1011.74 1011.65 1011.57 1011.52 1011.50 1011.50 1011.54 1011.62 1011.72 1011.85 1012.01 1012.19 1012.39 1012.62 1012.87 1013.15 1013.47 1013.82 1014.21 1014.63 1015.10
1008.32 1008.79 1009.29 1009.80 1010.31 1010.78 1011.21 1011.57 1011.85 1012.05 1012.17 1012.23 1012.23 1012.19 1012.10 1012.00 1011.87 1011.73 1011.59 1011.44 1011.30 1011.16 1011.04 1010.94 1010.86 1010.81 1010.79 1010.81 1010.87 1010.96 1011.07 1011.22 1011.39 1011.57 1011.78 1012.00 1012.25 1012.52 1012.82 1013.16 1013.53 1013.95 1014.41
1008.16 1008.54 1008.95 1009.39 1009.84 1010.30 1010.74 1011.15 1011.49 1011.76 1011.94 1012.03 1012.04 1011.97 1011.84 1011.67 1011.47 1011.25 1011.03 1010.82 1010.62 1010.45 1010.30 1010.18 1010.10 1010.06 1010.05 1010.08 1010.15 1010.25 1010.39 1010.55 1010.74 1010.94 1011.16 1011.39 1011.64 1011.91 1012.20 1012.53 1012.89 1013.29 1013.73
1007.96 1008.28 1008.62 1009.00 1009.40 1009.84 1010.28 1010.71 1011.10 1011.41 1011.63 1011.75 1011.77 1011.69 1011.52 1011.30 1011.03 1010.74 1010.46 1010.19 1009.95 1009.74 1009.57 1009.44 1009.35 1009.31 1009.30 1009.34 1009.42 1009.54 1009.69 1009.87 1010.08 1010.30 1010.55 1010.80 1011.07 1011.34 1011.65 1011.97 1012.31 1012.70 1013.11
1007.73 1008.03 1008.33 1008.66 1009.02 1009.43 1009.87 1010.30 1010.70 1011.03 1011.27 1011.40 1011.42 1011.32 1011.13 1010.87 1010.56 1010.24 1009.91 1009.60 1009.33 1009.10 1008.91 1008.77 1008.68 1008.63 1008.62 1008.66 1008.74 1008.87 1009.03 1009.23 1009.45 1009.70 1009.97 1010.24 1010.54 1010.84 1011.15 1011.48 1011.83 1012.20 1012.60
1007.53 1007.82 1008.10 1008.40 1008.74 1009.12 1009.52 1009.93 1010.32 1010.64 1010.87 1010.99 1011.00 1010.90 1010.69 1010.42 1010.09 1009.75 1009.40 1009.09 1008.80 1008.56 1008.36 1008.22 1008.11 1008.06 1008.05 1008.08 1008.16 1008.28 1008.44 1008.65 1008.88 1009.15 1009.43 1009.74 1010.06 1010.39 1010.72 1011.07 1011.44 1011.81 1012.21
1007.40 1007.71 1008.00 1008.29 1008.60 1008.94 1009.29 1009.65 1009.99 1010.27 1010.46 1010.56 1010.55 1010.43 1010.23 1009.95 1009.64 1009.30 1008.97 1008.65 1008.38 1008.14 1007.94 1007.79 1007.68 1007.62 1007.60 1007.62 1007.68 1007.79 1007.95 1008.15 1008.38 1008.66 1008.96 1009.28 1009.62 1009.98 1010.35 1010.72 1011.11 1011.50 1011.91
1007.42 1007.77 1008.07 1008.35 1008.63 1008.91 1009.21 1009.49 1009.75 1009.96 1010.09 1010.14 1010.10 1009.98 1009.78 1009.52 1009.22 1008.91 1008.60 1008.32 1008.06 1007.83 1007.64 1007.49 1007.38 1007.30 1007.27 1007.27 1007.31 1007.40 1007.54 1007.73 1007.96 1008.22 1008.53 1008.86 1009.22 1009.60 1009.99 1010.39 1010.81 1011.23 1011.66
1007.64 1008.02 1008.34 1008.61 1008.85 1009.07 1009.28 1009.47 1009.63 1009.74 1009.80 1009.78 1009.70 1009.56 1009.36 1009.12 1008.85 1008.58 1008.31 1008.05 1007.82 1007.61 1007.43 1007.28 1007.16 1007.07 1007.02 1007.00 1007.02 1007.09 1007.21 1007.37 1007.59 1007.84 1008.14 1008.47 1008.83 1009.22 1009.62 1010.05 1010.49 1010.94 1011.39
1008.08 1008.49 1008.81 1009.07 1009.26 1009.41 1009.53 1009.60 1009.64 1009.64 1009.59 1009.50 1009.37 1009.20 1008.99 1008.77 1008.53 1008.29 1008.05 1007.83 1007.62 1007.43 1007.26 1007.11 1006.98 1006.88 1006.81 1006.77 1006.78 1006.83 1006.93 1007.07 1007.26 1007.50 1007.78 1008.09 1008.45 1008.83 1009.24 1009.67 1010.13 1010.59 1011.07
1008.72 1009.14 1009.46 1009.69 1009.83 1009.89 1009.90 1009.86 1009.77 1009.64 1009.49 1009.31 1009.11 1008.90 1008.68 1008.46 1008.24 1008.03 1007.82 1007.62 1007.42 1007.24 1007.07 1006.92 1006.78 1006.67 1006.59 1006.55 1006.55 1006.59 1006.67 1006.80 1006.98 1007.19 1007.45 1007.74 1008.07 1008.44 1008.83 1009.26 1009.71 1010.18 1010.67
1009.48 1009.90 1010.21 1010.39 1010.47 1010.46 1010.36 1010.19 1009.97 1009.73 1009.46 1009.19 1008.93 1008.67 1008.42 1008.20 1007.98 1007.78 1007.58 1007.39 1007.21 1007.03 1006.86 1006.70 1006.56 1006.44 1006.36 1006.31 1006.31 1006.35 1006.44 1006.56 1006.73 1006.93 1007.16 1007.43 1007.73 1008.06 1008.43 1008.83 1009.26 1009.72 1010.20
Thickness
5785 5785 5782 5779 5774 5770 5765 5761 5757 5754 5750 5745 5740 5736 5733 5732 5730 5730 5729 5727 5724 5722 5720 5718 5714 5712 5709 5707 5705 5703 5701 5699 5699 5696 5695 5697 5700 5702 5703 5704 5704 5703 5704
5777 5779 5779 5776 5771 5767 5764 5759 5756 5753 5749 5745 5741 5736 5732 5729 5728 5726 5724 5723 5721 5719 5717 5714 5711 5708 5704 5702 5700 5699 5695 5694 5694 5690 5686 5683 5687 5693 5698 5698 5698 5698 5698
5776 5775 5773 5772 5769 5765 5762 5759 5755 5752 5749 5744 5739 5733 5728 5724 5722 5720 5719 5718 5717 5716 5714 5711 5708 5705 5701 5698 5696 5695 5691 5688 5688 5688 5684 5678 5676 5680 5687 5691 5693 5693 5693
5777 5773 5771 5768 5767 5766 5763 5758 5753 5749 5746 5742 5736 5729 5724 5719 5718 5717 5715 5714 5714 5712 5710 5708 5705 5702 5699 5696 5694 5692 5689 5686 5682 5682 5683 5682 5680 5675 5675 5681 5685 5687 5688
5773 5769 5767 5766 5766 5764 5759 5754 5749 5744 5741 5738 5733 5727 5722 5719 5716 5714 5711 5710 5709 5708 5706 5704 5701 5698 5696 5693 5690 5688 5686 5683 5680 5678 5677 5676 5675 5675 5672 5671 5676 5679 5682
5768 5766 5766 5764 5761 5758 5754 5750 5744 5740 5738 5734 5730 5725 5720 5716 5712 5710 5708 5706 5704 5703 5701 5699 5697 5694 5692 5689 5687 5684 5682 5679 5677 5676 5674 5672 5670 5669 5668 5667 5668 5670 5674
5763 5760 5759 5757 5755 5752 5749 5746 5741 5736 5734 5730 5726 5722 5718 5714 5711 5709 5706 5703 5700 5698 5697 5696 5693 5691 5688 5686 5684 5681 5678 5676 5673 5671 5671 5670 5669 5668 5666 5663 5662 5662 5665
5757 5756 5755 5753 5751 5749 5745 5742 5737 5733 5730 5726 5722 5719 5715 5712 5709 5707 5703 5700 5698 5696 5695 5692 5689 5687 5684 5682 5679 5677 5675 5673 5670 5669 5667 5666 5665 5665 5663 5661 5658 5655 5655
5752 5751 5750 5748 5747 5745 5742 5740 5734 5729 5726 5722 5718 5715 5713 5709 5705 5703 5700 5697 5695 5693 5691 5688 5685 5682 5680 5678 5675 5672 5671 5669 5666 5665 5664 5662 5662 5661 5660 5659 5656 5651 5648
5748 5747 5747 5745 5742 5741 5739 5735 5731 5725 5722 5718 5715 5712 5708 5705 5701 5698 5694 5692 5691 5689 5685 5683 5681 5678 5676 5674 5671 5669 5667 5664 5662 5661 5659 5658 5657 5656 5655 5654 5652 5650 5648
5742 5742 5741 5739 5736 5733 5731 5727 5723 5718 5714 5712 5709 5706 5702 5699 5696 5692 5690 5688 5686 5683 5681 5679 5676 5673 5670 5668 5666 5664 5662 5659 5658 5656 5655 5653 5653 5652 5650 5649 5647 5646 5644
5740 5738 5736 5734 5729 5726 5724 5720 5716 5713 5710 5707 5704 5701 5698 5694 5690 5687 5685 5683 5680 5678 5676 5674 5670 5668 5666 5664 5661 5659 5658 5655 5653 5652 5650 5648 5648 5647 5646 5644 5643 5641 5641
5734 5732 5730 5727 5723 5721 5718 5715 5711 5707 5704 5701 5697 5694 5691 5688 5685 5683 5681 5678 5675 5673 5671 5669 5665 5663 5661 5659 5657 5655 5653 5651 5650 5648 5646 5645 5643 5641 5640 5639 5638 5637 5637
5729 5726 5722 5720 5718 5715 5712 5710 5707 5704 5700 5696 5692 5688 5685 5683 5681 5678 5675 5673 5670 5668 5665 5663 5661 5659 5657 5654 5652 5649 5647 5646 5644 5643 5641 5640 5638 5637 5635 5634 5633 5631 5630
5722 5719 5716 5713 5711 5708 5705 5704 5701 5699 5696 5690 5686 5683 5681 5678 5675 5672 5670 5667 5665 5663 5661 5658 5656 5654 5652 5649 5646 5644 5642 5639 5638 5637 5636 5635 5635 5634 5632 5631 5628 5626 5623
5716 5714 5712 5708 5704 5701 5699 5697 5695 5693 5690 5685 5681 5678 5675 5672 5669 5667 5664 5662 5659 5657 5655 5652 5650 5648 5647 5645 5642 5639 5637 5634 5632 5630 5630 5629 5629 5628 5627 5626 5625 5623 5620
5712 5708 5706 5703 5701 5698 5695 5692 5691 5688 5684 5680 5677 5674 5670 5667 5664 5662 5659 5656 5654 5652 5649 5646 5645 5642 5640 5639 5637 5635 5632 5629 5626 5624 5623 5623 5624 5622 5620 5619 5619 5618 5617
5707 5705 5702 5698 5696 5694 5691 5689 5687 5683 5679 5674 5672 5669 5666 5662 5659 5656 5653 5651 5648 5646 5643 5641 5639 5637 5635 5634 5631 5629 5626 5623 5621 5619 5618 5616 5615 5615 5613 5612 5611 5610 5611
5701 5699 5698 5694 5691 5689 5687 5683 5680 5676 5673 5670 5667 5664 5661 5657 5654 5650 5648 5646 5643 5640 5638 5636 5633 5631 5630 5628 5626 5624 5620 5616 5615 5614 5613 5611 5610 5610 5608 5605 5603 5603 5605
5695 5693 5691 5688 5684 5683 5681 5677 5673 5670 5668 5666 5663 5661 5657 5653 5650 5646 5644 5641 5637 5634 5632 5629 5628 5626 5624 5623 5621 5618 5614 5610 5609 5607 5606 5606 5605 5604 5601 5599 5598 5597 5599
5688 5687 5684 5681 5678 5677 5674 5671 5668 5665 5665 5663 5660 5657 5653 5649 5646 5643 5639 5635 5632 5628 5625 5622 5621 5619 5618 5616 5614 5611 5607 5605 5603 5601 5601 5601 5600 5598 5596 5595 5593 5594 5594
5680 5678 5675 5673 5672 5670 5667 5664 5662 5662 5660 5657 5654 5651 5648 5645 5643 5638 5633 5629 5625 5621 5618 5615 5613 5612 5611 5610 5608 5605 5602 5600 5597 5597 5596 5596 5594 5593 5591 5590 5591 5590 5588
5671 5669 5667 5665 5664 5663 5661 5658 5658 5657 5654 5650 5647 5645 5642 5639 5636 5632 5627 5623 5619 5614 5611 5609 5606 5605 5605 5603 5601 5599 5597 5595 5592 5591 5591 5590 5589 5588 5587 5587 5587 5585 5583
5662 5660 5658 5656 5655 5656 5655 5653 5652 5650 5647 5643 5641 5638 5635 5632 5630 5626 5622 5618 5614 5610 5607 5604 5601 5599 5598 5596 5594 5592 5590 5588 5586 5585 5585 5585 5584 5584 5583 5583 5582 5581 5580
5653 5652 5649 5648 5648 5648 5647 5647 5646 5643 5639 5636 5634 5631 5629 5625 5623 5620 5616 5614 5611 5608 5604 5601 5598 5594 5592 5592 5589 5586 5584 5582 5580 5578 5577 5577 5577 5577 5577 5576 5576 5576 5575
5645 5643 5642 5641 5640 5639 5639 5639 5639 5637 5633 5629 5626 5624 5622 5619 5617 5613 5610 5609 5607 5604 5601 5598 5595 5592 5590 5588 5585 5582 5581 5579 5576 5572 5571 5571 5571 5571 5571 5571 5571 5571 5570